Location: Le Petit-Vavre
(46.5081°N, 1.5239°E)
Time: 16:47:18
(UTC+00:00)

USA 306 - Pass Details

Date: 03 March 2021
Orbit: 564 x 577 km, 54.0° (Epoch: 13 April)

Event Time Altitude Azimuth Distance (km) Brightness Sun altitude
Rises 19:59:15 0° 295° (WNW) 2,772 7.8 -24.0°
Reaches altitude 10° 20:01:42 10° 305° (NW) 1,872 6.5 -24.4°
Enters shadow 20:05:20 32° 4° (N) 994 4.2 -25.0°
